FENGYUN 1C DEB, 30284

Orbit data source: Space-Track

FENGYUN 1C DEB, 30284 is space debris in SSO originally from a launch on Mon, 10 May 1999 UTC launched from the Taiyaun Space Center, China (TSC). Fengyun 1C debris stems from the Chinese weather satellite Fengyun-1C, which was intentionally destroyed by a Chinese anti-satellite missile in 2007. This event dramatically increased the amount of space debris, with thousands of trackable fragments posing hazards to satellites and human spaceflight. The Fengyun 1C debris cloud has become a focal point in discussions about space sustainability and the need for international regulations to prevent the creation of new debris.

Loading next visibility...
Identifier
30284, 1999-025YV
Orbit
SSO
Country
Flag of CNCN / PRC
Related business
Manufacturer
Unknown
Mission
Spacecraft
Bus & Motor
Unknown
Mass
Unknown
Launch date (UTC)
1999-05-10 (27 years ago)
Launch vehicle
Unknown
Launch site
Taiyaun Space Center, China (TSC)
Object type
Payload
Rocket body
Debris
Shape & HBR
Unknown shape, 0.1 m
Radar Cross Section
Small (<0.1 m²)

Expand to show TLE details & history
Last TLE update: 1 day ago

TLE from 1 day ago
0 FENGYUN 1C DEB
1 30284U 99025YV  26145.14783340  .00002123  00000-0  83582-3 0  9997
2 30284  98.7067 218.5707 0035420 352.6922  37.2274 14.29925661998500
Epoch: 2026-05-25T03:32Z
TLE epoch observation values (Epoch: 2026-05-25T03:32:52.805Z)
Latitude
29.83455°
Longitude
-82.40082°
Altitude
775.52 km
Speed
7.479 km/s
True Right ascension
14h 14m 14s
True Declination
29° 41' 12"
Sunlit
Object was in full shadow at epoch
Visualization orbit readout
Latitude
Unknown
Longitude
Unknown
Altitude
Unknown
Speed
Unknown
Apparent Right ascension
Unknown
Apparent Declination
Unknown
Sunlit
N/A
Visualization observer readout
Local Sidereal Time
13:02:27
Azimuth
Unknown
Elevation
Unknown
Doppler factor
Unknown
Orbital elements
Apogee altitude
814.511 km
Perigee altitude
763.738 km
Semi-major axis
7,167.261 km
Eccentricity
0.00354
Inclination
98.7067°
RAAN
218.5707°
Arg. of periapsis
352.6922°
True anomaly
37.47382°
Mean anomaly
37.2274°
Eccentric anomaly
37.35052°
Mean motion
3.57695 °/min
Orbital period
100.64 mins
BSTAR
0.00083582
Loading maneuver chart data...
Computing Atmospheric mass density...
Loading historical data...
Loading historical data...
Loading historical data...
Loading historical data...
Loading historical data...
Loading historical data...
Loading historical data...

Documentation

Showing up to 5 results
|